Preview of NWS' New Version of Forecast
This preview is not operational and should not be used for support decisions.

Regional Weather Roundup (RWR)

Issued by National Weather Service (NWS)

                            
000
ASCA42 TJSJ 210410
RWRPR 
PUERTO RICO/U.S. VIRGIN ISLANDS HOURLY WEATHER ROUNDUP
NATIONAL WEATHER SERVICE SAN JUAN PR
1200 AM AST WED AUG 21 2019

PRZ001>002-007>008-010-210500-
PUERTO RICO
  
CITY           SKY/WX    TMP DP  RH WIND       PRES   REMARKS
SAN JUAN LMM   PTCLDY    82  75  78 NE10      30.05F                  
CEIBA          CLEAR     82  75  78 NE9       30.06F                  
$$

VIZ001>002-210500-
U.S. VIRGIN ISLANDS
  
CITY           SKY/WX    TMP DP  RH WIND       PRES   REMARKS
CHARLOTTE AMA  CLEAR     82  75  78 NE12      30.03F                  
CHRISTIANSTED  CLEAR     79  73  83 NE5       30.04S                  
$$

HOURLY WEATHER ROUNDUP FOR THE NEWS MEDIA
  
CITY           SKY/WX    TMP DP  RH WIND       PRES   REMARKS
ORLANDO        FAIR      79  75  87 SE6       30.12F                  
NEW YORK       MOCLDY    75  74  96 SE6       30.04F                  
NEWARK         FAIR      77  69  76 CALM      30.03S                  
CHICAGO        MOCLDY    70  66  87 W6        29.99R                  
HARTFORD       FAIR      66  62  87 CALM      30.05S                  
BOSTON         MOCLDY    73  63  70 SE5       30.04F                  
DALLAS         FAIR      92  68  45 SE9       30.00R HX  96           
PHILADELPHIA   MOCLDY    78  72  81 S6        30.04R                  
LOS ANGELES    CLEAR     71  60  68 SW9       29.86S                  
WASHINGTON DC  MOCLDY    70  68  93 S7        30.05R